(336057) = 2008 EN19

Discovered at Kitt Peak on 2008-03-02 by Spacewatch.

Orbit

Orbit type: Main Belt

Note: WebGL enabled browser required.

epoch2023-09-13.0
epoch JD2460200.5
perihelion date2022-09-13.38250
perihelion JD2459835.88250
argument of perihelion (°)86.05337
ascending node (°)195.19649
inclination (°)4.07106
eccentricity0.2412224
perihelion distance (AU)1.7333534
Tisserand w.r.t. Jupiter3.6
ΔV w.r.t. Earth (km/sec)8.2
semimajor axis (AU)2.2844024
mean anomaly (°)104.08363
mean daily motion (°/day)0.28545980
aphelion distance (AU)2.835
period (years)3.45
P-vector [x]0.19442814
P-vector [y]-0.92579722
P-vector [z]-0.32418700
Q-vector [x]0.98074022
Q-vector [y]0.17719984
Q-vector [z]0.08215129
absolute magnitude17.75
phase slope0.15
uncertainty0
referenceMPEC 2024-A12
observations used315
oppositions11
arc length (days)10320
first opposition used1995
last opposition used2024
residual rms (arc-secs)0.73
perturbers coarse indicatorM-v
perturbers precise indicator003Ek
first observation date used1995-09-30.0
last observation date used2024-01-01.0
computer nameMPCLINUX
JD of orbit computation2456157.073684
perihelion JD uncertainty (days)8.2022E-05
argument of perihelion uncertainty (°)1.1535E-04
ascending node uncertainty (°)1.1190E-04
inclination uncertainty (°)7.7017E-06
eccentricity uncertainty 6.5269E-08
perihelion distance uncertainty (AU)1.4712E-07
Minimum Orbit Intersection Distances (in AU)
for orbit epoch: 2460200.5, reference: E2024-A12
Mercury1.28091
Venus1.01148
Earth0.72239
Mars0.30322
Jupiter2.31669
Saturn6.23015
Uranus15.844
Neptune27.2073

Observations

329 total observations over interval: 1995 09 30.44040 – 2024 01 01.253872
These data are available for download (format description).

Date (UT) J2000 RA J2000 Dec Magn Location Ref
1995 09 30.44040 01 30 43.99 +09 21 35.5 20.5 V 691 – Steward Observatory, Kitt Peak-Spacewatch MPS 383035
1995 09 30.46147 01 30 42.80 +09 21 25.7   691 – Steward Observatory, Kitt Peak-Spacewatch MPS 383035
1995 09 30.48263 01 30 41.59 +09 21 15.8   691 – Steward Observatory, Kitt Peak-Spacewatch MPS 383035
2005 06 11.40185 20 23 05.75 -10 58 29.1 19.7 V 691 – Steward Observatory, Kitt Peak-Spacewatch MPS 348072
2005 06 11.41922 20 23 05.98 -10 58 24.0 20.0 V 691 – Steward Observatory, Kitt Peak-Spacewatch MPS 348072
2005 06 11.43658 20 23 06.26 -10 58 18.4 19.4 V 691 – Steward Observatory, Kitt Peak-Spacewatch MPS 348072
2005 06 30.26491 20 22 05.00 -10 02 14.9 19.5 V 691 – Steward Observatory, Kitt Peak-Spacewatch MPS 348072
2005 06 30.28228 20 22 04.56 -10 02 13.8 19.3 V 691 – Steward Observatory, Kitt Peak-Spacewatch MPS 348072
2005 06 30.29981 20 22 04.08 -10 02 13.3 19.4 V 691 – Steward Observatory, Kitt Peak-Spacewatch MPS 348072
2008 03 02.34763 12 27 36.15 -05 19 37.4 20.9 V 691 – Steward Observatory, Kitt Peak-Spacewatch MPS 242332
2008 03 02.36527 12 27 35.49 -05 19 32.2 20.6 V 691 – Steward Observatory, Kitt Peak-Spacewatch MPS 242332
2008 03 02.38290 12 27 34.78 -05 19 26.4 20.5 V 691 – Steward Observatory, Kitt Peak-Spacewatch MPS 242332
2008 03 06.28613 12 25 01.45 -04 57 21.2 20.6 V 691 – Steward Observatory, Kitt Peak-Spacewatch MPS 242332
2008 03 06.30130 12 25 00.81 -04 57 14.9 20.4 V 691 – Steward Observatory, Kitt Peak-Spacewatch MPS 242332
2008 03 06.31647 12 25 00.07 -04 57 09.5 20.4 V 691 – Steward Observatory, Kitt Peak-Spacewatch MPS 242332
2008 03 10.27411 12 22 02.17 -04 31 37.3 20.3 V 691 – Steward Observatory, Kitt Peak-Spacewatch MPS 252512
2008 03 10.29182 12 22 01.30 -04 31 29.8 20.5 V 691 – Steward Observatory, Kitt Peak-Spacewatch MPS 252512
2008 03 10.30952 12 22 00.41 -04 31 22.9 20.4 V 691 – Steward Observatory, Kitt Peak-Spacewatch MPS 252512
2008 03 26.30612 12 07 30.10 -02 24 27.1 19.8 V G96 – Mt. Lemmon Survey MPS 347172
2008 03 26.31372 12 07 29.64 -02 24 23.2 20.1 V G96 – Mt. Lemmon Survey MPS 347172
2008 03 26.32130 12 07 29.17 -02 24 19.2 20.0 V G96 – Mt. Lemmon Survey MPS 347172
2008 03 26.32894 12 07 28.74 -02 24 15.5 19.7 V G96 – Mt. Lemmon Survey MPS 347172
2008 04 24.20709 11 44 36.16 +01 19 56.1 20.6 V G96 – Mt. Lemmon Survey MPS 347172
2008 04 24.21259 11 44 35.98 +01 19 57.7 20.4 V G96 – Mt. Lemmon Survey MPS 347172
2008 04 24.21817 11 44 35.84 +01 19 59.9 20.6 V G96 – Mt. Lemmon Survey MPS 347172
2008 04 24.22371 11 44 35.66 +01 20 01.8 20.8 V G96 – Mt. Lemmon Survey MPS 347172
2011 01 28.29517 08 59 40.16 +11 06 54.2 21.3 V G96 – Mt. Lemmon Survey MPS 368582
2011 01 28.30263 08 59 39.66 +11 06 56.8 21.2 V G96 – Mt. Lemmon Survey MPS 368582
2011 01 28.31022 08 59 39.22 +11 06 58.3 21.0 V G96 – Mt. Lemmon Survey MPS 368582
2011 01 28.31780 08 59 38.72 +11 07 00.6 21.1 V G96 – Mt. Lemmon Survey MPS 368582
2012 05 28.41766 21 50 20.22 -07 06 22.6 20.1 V G96 – Mt. Lemmon Survey MPS 426009
2012 05 28.42344 21 50 20.76 -07 06 19.5 20.8 V G96 – Mt. Lemmon Survey MPS 426009
2012 05 28.42924 21 50 21.26 -07 06 16.0 20.8 V G96 – Mt. Lemmon Survey MPS 426009
2012 05 28.43498 21 50 21.76 -07 06 12.8 20.8 V G96 – Mt. Lemmon Survey MPS 426009
2012 07 13.01248 22 29 51.73 -02 04 09.5 19.6 V D03 – Rantiga Osservatorio, Tincana MPS 428179
2012 07 13.03630 22 29 51.86 -02 04 08.0 20.9 V D03 – Rantiga Osservatorio, Tincana MPS 428179
2012 07 13.06471 22 29 52.04 -02 04 03.9 20.1 V D03 – Rantiga Osservatorio, Tincana MPS 428179
2012 08 10.05899 22 20 30.51 -03 08 10.3 19.6   J43 – Oukaimeden Observatory, Marrakech MPS 429373
2012 08 10.07362 22 20 29.77 -03 08 15.7 20.5   J43 – Oukaimeden Observatory, Marrakech MPS 429373
2012 08 10.08824 22 20 29.13 -03 08 20.4 19.7   J43 – Oukaimeden Observatory, Marrakech MPS 429373
2012 08 10.10286 22 20 28.46 -03 08 26.3 19.2   J43 – Oukaimeden Observatory, Marrakech MPS 429373
2012 08 10.50566 22 20 11.049 -03 10 51.82 19.2 r F51 – Pan-STARRS 1, Haleakala MPS 429373
2012 08 10.51600 22 20 10.557 -03 10 55.75 19.3 r F51 – Pan-STARRS 1, Haleakala MPS 429373
2012 08 11.60504 22 19 22.87 -03 17 37.4 18.8 V E12 – Siding Spring Survey MPS 429373
2012 08 11.61785 22 19 22.22 -03 17 41.3 18.7 V E12 – Siding Spring Survey MPS 429373
2012 08 11.63077 22 19 21.61 -03 17 46.1 17.9 V E12 – Siding Spring Survey MPS 429373
2012 08 11.64355 22 19 20.92 -03 17 51.0 19.3 V E12 – Siding Spring Survey MPS 429373
2012 08 13.41683 22 18 00.726 -03 29 38.97 19.2 w F51 – Pan-STARRS 1, Haleakala MPS 429373
2012 08 13.43133 22 18 00.001 -03 29 44.84 19.1 w F51 – Pan-STARRS 1, Haleakala MPS 429373
2012 08 13.44586 22 17 59.270 -03 29 50.77 19.3 w F51 – Pan-STARRS 1, Haleakala MPS 429373
2012 08 13.46061 22 17 58.484 -03 29 56.60 20.3 w F51 – Pan-STARRS 1, Haleakala MPS 429373
2012 08 14.54228 22 17 07.804 -03 37 21.51 19.6 g F51 – Pan-STARRS 1, Haleakala MPS 429373
2012 08 14.55419 22 17 07.210 -03 37 26.38 19.7 g F51 – Pan-STARRS 1, Haleakala MPS 429373
2012 08 16.03088 22 15 57.56 -03 47 55.9 19.4   J43 – Oukaimeden Observatory, Marrakech MPS 429373
2012 08 16.04555 22 15 56.79 -03 48 01.8 19.2   J43 – Oukaimeden Observatory, Marrakech MPS 429373
2012 08 16.06018 22 15 56.04 -03 48 08.1 19.3   J43 – Oukaimeden Observatory, Marrakech MPS 429373
2012 08 16.07478 22 15 55.27 -03 48 14.4 19.5   J43 – Oukaimeden Observatory, Marrakech MPS 429373
2012 09 13.14005 21 56 00.63 -07 28 53.3 19.0 V 703 – Catalina Sky Survey MPS 431827
2012 09 13.14625 21 56 00.52 -07 28 55.9 19.3 V 703 – Catalina Sky Survey MPS 431827
2012 09 13.15238 21 56 00.20 -07 28 58.8 20.4 V 703 – Catalina Sky Survey MPS 431827
2012 09 13.15859 21 56 00.06 -07 29 01.6 19.7 V 703 – Catalina Sky Survey MPS 431827
2015 03 15.37024 13 34 20.24 -10 19 01.7 20.3 r G45 – Space Surveillance Telescope, Atom Site MPS 597539
2015 03 15.38393 13 34 19.95 -10 18 57.2 20.4 r G45 – Space Surveillance Telescope, Atom Site MPS 597539
2015 03 15.39016 13 34 19.77 -10 18 55.6 20.9 r G45 – Space Surveillance Telescope, Atom Site MPS 597539
2015 03 15.39454 13 34 19.67 -10 18 54.0 20.2 r G45 – Space Surveillance Telescope, Atom Site MPS 597539
2015 03 21.40852 13 31 23.48 -09 47 14.6 20.2 V G96 – Mt. Lemmon Survey MPS 595008
2015 03 21.41623 13 31 23.12 -09 47 12.3 20.5 V G96 – Mt. Lemmon Survey MPS 595008
2015 03 21.42394 13 31 22.85 -09 47 09.0 20.6 V G96 – Mt. Lemmon Survey MPS 595008
2015 03 21.43164 13 31 22.55 -09 47 06.4 20.3 V G96 – Mt. Lemmon Survey MPS 595008
2015 03 24.40219 13 29 32.81 -09 28 42.3 20.1 r G45 – Space Surveillance Telescope, Atom Site MPS 600488
2015 03 24.41031 13 29 32.59 -09 28 38.9 19.8 r G45 – Space Surveillance Telescope, Atom Site MPS 600488
2015 03 24.41927 13 29 32.20 -09 28 34.8 20.6 r G45 – Space Surveillance Telescope, Atom Site MPS 600488
2015 03 24.42719 13 29 31.85 -09 28 31.9 20.9 r G45 – Space Surveillance Telescope, Atom Site MPS 600488
2015 03 24.43409 13 29 31.56 -09 28 28.9 20.3 r G45 – Space Surveillance Telescope, Atom Site MPS 600488
2015 03 24.44255 13 29 31.21 -09 28 26.6 20.1 r G45 – Space Surveillance Telescope, Atom Site MPS 600488
2015 03 25.37132 13 28 54.23 -09 22 19.5   691 – Steward Observatory, Kitt Peak-Spacewatch MPS 595008
2015 03 25.38381 13 28 53.72 -09 22 14.6 20.2 r G45 – Space Surveillance Telescope, Atom Site MPS 600488
2015 03 25.39022 13 28 53.42 -09 22 11.4   691 – Steward Observatory, Kitt Peak-Spacewatch MPS 595008
2015 03 25.39095 13 28 53.39 -09 22 11.3 19.9 r G45 – Space Surveillance Telescope, Atom Site MPS 600488
2015 03 25.39253 13 28 53.29 -09 22 10.4 20.2 r G45 – Space Surveillance Telescope, Atom Site MPS 600488
2015 03 25.40684 13 28 52.63 -09 22 04.5 19.6 r G45 – Space Surveillance Telescope, Atom Site MPS 600488
2015 03 25.41583 13 28 52.27 -09 22 01.4 20.1 r G45 – Space Surveillance Telescope, Atom Site MPS 600488
2015 03 25.41757 13 28 52.22 -09 22 00.7   691 – Steward Observatory, Kitt Peak-Spacewatch MPS 595008
2015 03 25.42385 13 28 51.90 -09 21 58.1 20.3 r G45 – Space Surveillance Telescope, Atom Site MPS 600488
2015 03 27.33562 13 27 31.58 -09 08 52.5 20.4 V 691 – Steward Observatory, Kitt Peak-Spacewatch MPS 595008
